Regional Weather Roundup
Issued by NWS

Home | Current Version | Previous Version | Graphics & Text | Print | Product List | Glossary On
Versions: 1 2 3 4 5 6 7 8 9 10 11 12 13 14 15 16 17 18 19 20 21 22 23 24 25 26 27 28 29 30 31 32 33 34 35 36 37 38 39 40 41 42 43 44 45 46 47 48 49 50
000
ASUS43 KFSD 290502
RWRSD

WEATHER ROUNDUP FOR SOUTH DAKOTA
NATIONAL WEATHER SERVICE SIOUX FALLS SD
1200 AM CDT WED MAR 29 2017

NOTE: "FAIR" INDICATES FEW OR NO CLOUDS BELOW 12,000 FEET WITH NO
SIGNIFICANT WEATHER AND/OR OBSTRUCTIONS TO VISIBILITY.


SDZ001>005-009-010-012>017-290600-
NORTHWEST AND NORTH CENTRAL SOUTH DAKOTA

CITY           SKY/WX    TMP DP  RH WIND       PRES   REMARKS
BUFFALO          N/A     42  40  92 SE9       30.07R
FAITH            N/A     43  43 100 MISG      30.14F
MOBRIDGE       MOCLDY    46  39  76 NW5       30.13F
$$

SDZ012>016-024>037-041>051-057-063-072>074-290600-
SOUTHWEST AND SOUTH CENTRAL SOUTH DAKOTA

CITY           SKY/WX    TMP DP  RH WIND       PRES   REMARKS
RAPID CTY ARPT CLOUDY    42  41  96 S8        30.13S
PIERRE         CLOUDY    44  42  93 NW5       30.15S
CUSTER         CLOUDY    36  34  92 VRB3      30.10F
ELLSWORTH AFB  CLOUDY    43  43 100 S7        30.12
PHILIP         CLOUDY    43  43 100 CALM      30.15F
PINE RIDGE     LGT RAIN  42  42 100 CALM      30.14S
SPEARFISH      FAIR      34  32  93 SW6       30.12F WCI  29
WINNER         CLOUDY    44  42  93 W5        30.13F
$$

SDZ004>011-016>023-039-040-290600-
NORTHEAST SOUTH DAKOTA

CITY           SKY/WX    TMP DP  RH WIND       PRES   REMARKS
ABERDEEN       CLOUDY    45  34  65 E8        30.16F
WATERTOWN      CLOUDY    46  36  68 E6        30.16F
BROOKINGS      PTCLDY    43  36  76 E3        30.15S
SISSETON         N/A     41  37  86 N6        30.17F
$$

SDZ017-020-022-023-036>040-048>070-290600-
SOUTHEAST SOUTH DAKOTA

CITY           SKY/WX    TMP DP  RH WIND       PRES   REMARKS
SIOUX FALLS    CLOUDY    44  37  76 N5        30.13F
HURON          CLOUDY    44  39  82 E5        30.14S
CHAMBERLAIN    CLOUDY    47  43  86 NW6       30.14F
MITCHELL       MOCLDY    47  37  68 E6        30.14S
YANKTON        MOCLDY    48  39  71 E5        30.12R
$$

ABBREVIATIONS USED IN REMARKS
   TC - TEMPERATURE IN CELSIUS
  WCI - WIND CHILL INDEX
   HX - HEAT INDEX
  VSB - VISIBILITY





USA.gov is the U.S. government's official web portal to all federal, state and local government web resources and services.